Weather History for Rogers, AR

Change the Weather History Date:

Tuesday, April 23, 2013

  Actual Average Record
Temperature  
Mean Temperature 48 °F -  
Max Temperature 61 °F 66 °F 84 °F (2006)
Min Temperature 35 °F 47 °F 35 °F (2013)
Degree Days  
Heating Degree Days 17    
Growing Degree Days 0 (Base 50)    
Moisture  
Dew Point 42 °F    
Average Humidity 89    
Maximum Humidity 100    
Minimum Humidity 58    
Precipitation  
Precipitation 0.06 in - - ()
Sea Level Pressure  
Sea Level Pressure 29.97 in    
Wind  
Wind Speed 10 mph (NNW)    
Max Wind Speed 16 mph    
Max Gust Speed 21 mph    
Visibility 6 miles    
Events Rain , Thunderstorm    
Averages and records for this station are not official NWS values.
T = Trace of Precipitation, MM = Missing Value Source: NWS Daily Summary

Daily Weather History Graph

Daily Weather History Graph

Search for Another Location

Airport:

Trip Planner

Search our weather history database for the weather conditions in past years. The results will help you decide how hot, cold, wet, or windy it might be!

Date:

Astronomy

Apr. 23, 2013 Rise Set
Actual Time 6:32 AM CDT 7:57 PM CDT
Civil Twilight 6:05 AM CDT 8:24 PM CDT
Nautical Twilight 5:32 AM CDT 8:57 PM CDT
Astronomical Twilight 4:58 AM CDT 9:31 PM CDT
Moon 5:56 PM CDT (4/23) 4:56 AM CDT (4/23)
Length of Visible Light 14h 19m
Length of Day
13h 25m
Waxing Gibbous, 94% of the Moon is Illuminated
Apr 23
Waxing Gibbous
Apr 25
Full
May 2
Last Quarter
May 9
New
May 17
First Quarter

Hourly Weather History & Observations

Time (CDT) Temp. Windchill Dew Point Humidity Pressure Visibility Wind Dir Wind Speed Gust Speed Precip Events Conditions
12:57 AM 59.0 °F - 45.0 °F 60% 29.95 in 10.0 mi ESE 11.5 mph - N/A   Overcast
1:57 AM 59.0 °F - 46.0 °F 62% 29.94 in 10.0 mi ESE 8.1 mph - N/A   Partly Cloudy
2:57 AM 57.9 °F - 45.0 °F 62% 29.88 in 10.0 mi East 10.4 mph - N/A   Partly Cloudy
3:57 AM 57.9 °F - 46.0 °F 65% 29.86 in 10.0 mi ESE 6.9 mph - N/A   Partly Cloudy
4:57 AM 61.0 °F - 46.0 °F 58% 29.81 in 10.0 mi SE 13.8 mph - N/A   Overcast
5:57 AM 59.0 °F - 48.9 °F 69% 29.83 in 10.0 mi SE 9.2 mph - 0.00 in Rain Light Rain
6:46 AM 60.8 °F - 50.0 °F 68% 29.86 in 10.0 mi South 11.5 mph - 0.01 in Rain , Thunderstorm Light Thunderstorms and Rain
6:57 AM 60.1 °F - 50.0 °F 69% 29.87 in 10.0 mi WNW 11.5 mph - 0.01 in Rain , Thunderstorm Light Thunderstorms and Rain
7:01 AM 60.8 °F - 50.0 °F 68% 29.90 in 10.0 mi WNW 13.8 mph - 0.00 in Rain Light Rain
7:57 AM 55.0 °F - 51.1 °F 86% 29.91 in 10.0 mi NNW 9.2 mph - 0.00 in   Overcast
8:57 AM 55.9 °F - 52.0 °F 87% 29.91 in 10.0 mi North 4.6 mph - N/A   Overcast
9:57 AM 57.9 °F - 52.0 °F 81% 29.91 in 10.0 mi ENE 5.8 mph - N/A   Overcast
10:57 AM 60.1 °F - 52.0 °F 75% 29.92 in 10.0 mi East 3.5 mph - N/A   Overcast
11:57 AM 57.9 °F - 54.0 °F 87% 29.92 in 10.0 mi NW 8.1 mph - N/A   Overcast
12:57 PM 55.4 °F - 53.6 °F 94% 29.94 in 10.0 mi NNW 9.2 mph - N/A   Overcast
12:59 PM 55.9 °F - 53.1 °F 90% 29.92 in 10.0 mi NNW 8.1 mph - N/A   Overcast
1:06 PM 55.4 °F - 51.8 °F 88% 29.93 in 9.0 mi NNW 13.8 mph - N/A   Overcast
1:13 PM 51.8 °F - 48.2 °F 88% 29.94 in 7.0 mi NNW 11.5 mph - N/A   Overcast
1:31 PM 46.4 °F 40.1 °F 44.6 °F 93% 29.94 in 10.0 mi NNW 15.0 mph - 0.00 in Rain Light Rain
1:57 PM 45.0 °F 39.7 °F 44.1 °F 97% 29.95 in 6.0 mi NW 10.4 mph - 0.00 in Rain Light Rain
2:39 PM 42.8 °F 37.0 °F 42.8 °F 100% 29.96 in 4.0 mi NNW 10.4 mph 16.1 mph 0.00 in Rain Light Rain
2:57 PM 42.8 °F 36.6 °F 41.0 °F 93% 29.97 in 2.5 mi NNW 11.5 mph - 0.01 in Rain Light Rain
2:59 PM 42.1 °F 36.1 °F 41.0 °F 96% 29.97 in 2.5 mi NNW 10.4 mph - 0.01 in Rain Light Rain
3:20 PM 41.0 °F 35.8 °F 39.2 °F 93% 29.97 in 3.0 mi NNW 8.1 mph - 0.00 in Rain Light Rain
3:23 PM 41.0 °F 34.3 °F 39.2 °F 93% 29.97 in 2.5 mi NNW 11.5 mph - 0.00 in Rain Light Rain
3:40 PM 41.0 °F 34.3 °F 39.2 °F 93% 29.97 in 3.0 mi NW 11.5 mph 19.6 mph 0.00 in Rain Light Rain
3:49 PM 39.2 °F 30.5 °F 39.2 °F 100% 29.98 in 2.5 mi NW 16.1 mph 19.6 mph 0.00 in Rain Light Rain
3:57 PM 39.9 °F 32.1 °F 37.9 °F 93% 29.99 in 2.5 mi NNW 13.8 mph 19.6 mph 0.00 in Rain Light Rain
4:10 PM 39.2 °F 32.0 °F 37.4 °F 93% 29.99 in 1.8 mi NNW 11.5 mph 19.6 mph 0.00 in Rain Light Rain
4:16 PM 39.2 °F 32.5 °F 37.4 °F 93% 29.99 in 2.0 mi NNW 10.4 mph - 0.00 in Rain Light Rain
4:20 PM 39.2 °F 32.0 °F 37.4 °F 93% 29.99 in 1.8 mi NNW 11.5 mph 17.3 mph 0.00 in Rain Light Rain
4:26 PM 39.2 °F 33.6 °F 37.4 °F 93% 29.99 in 2.0 mi NNW 8.1 mph - 0.00 in Rain Light Rain
4:33 PM 39.2 °F 33.0 °F 37.4 °F 93% 29.99 in 3.0 mi NNW 9.2 mph - 0.00 in Rain Light Rain
4:45 PM 39.2 °F 32.0 °F 37.4 °F 93% 29.99 in 2.5 mi NNW 11.5 mph 20.7 mph 0.00 in Rain Light Rain
4:48 PM 39.2 °F 31.2 °F 37.4 °F 93% 29.99 in 3.0 mi NNW 13.8 mph 17.3 mph 0.00 in Rain Light Rain
4:57 PM 39.2 °F 32.5 °F 37.4 °F 93% 29.99 in 3.0 mi NNW 10.4 mph - 0.00 in Rain Light Rain
4:59 PM 39.0 °F 32.8 °F 37.0 °F 93% 29.99 in 4.0 mi NNW 9.2 mph - 0.00 in Rain Light Rain
5:25 PM 39.2 °F 32.5 °F 37.4 °F 93% 30.00 in 3.0 mi NNW 10.4 mph - 0.01 in Rain Light Rain
5:31 PM 37.4 °F 30.8 °F 37.4 °F 100% 30.00 in 2.5 mi NNW 9.2 mph - 0.01 in Rain Light Rain
5:46 PM 37.4 °F 31.4 °F 37.4 °F 100% 30.01 in 1.8 mi NNW 8.1 mph - 0.01 in Rain Light Rain
5:57 PM 37.9 °F 32.1 °F 37.0 °F 97% 30.01 in 1.8 mi NNW 8.1 mph - 0.02 in Rain Light Rain
6:07 PM 37.4 °F 29.8 °F 37.4 °F 100% 30.01 in 2.0 mi NNW 11.5 mph 17.3 mph 0.00 in Rain Light Rain
6:13 PM 37.4 °F 30.3 °F 37.4 °F 100% 30.01 in 3.0 mi North 10.4 mph 17.3 mph 0.00 in Rain Light Rain
6:26 PM 37.4 °F 32.8 °F 37.4 °F 100% 30.02 in 2.5 mi North 5.8 mph - 0.00 in Rain Light Rain
6:32 PM 37.4 °F 31.4 °F 37.4 °F 100% 30.02 in 3.0 mi NNW 8.1 mph - 0.01 in Rain Light Rain
6:42 PM 39.2 °F 34.2 °F 37.4 °F 93% 30.02 in 2.5 mi NNW 6.9 mph - 0.01 in Rain Light Rain
6:57 PM 37.4 °F 30.8 °F 37.4 °F 100% 30.03 in 2.0 mi NNW 9.2 mph 19.6 mph 0.01 in Rain Light Rain
6:59 PM 37.9 °F 30.5 °F 37.0 °F 97% 30.03 in 2.0 mi NNW 11.5 mph - 0.01 in Rain Light Rain
7:09 PM 37.4 °F 31.4 °F 35.6 °F 93% 30.04 in 3.0 mi NNW 8.1 mph - 0.01 in Rain Light Rain
7:44 PM 37.4 °F 32.1 °F 35.6 °F 93% 30.05 in 3.0 mi NNW 6.9 mph - 0.01 in Rain Light Rain
7:57 PM 37.0 °F 29.8 °F 36.0 °F 96% 30.06 in 4.0 mi NNW 10.4 mph - 0.01 in Rain Light Rain
8:14 PM 37.4 °F 31.4 °F 35.6 °F 93% 30.05 in 6.0 mi NNW 8.1 mph - 0.00 in   Overcast
8:57 PM 37.0 °F 31.0 °F 35.1 °F 93% 30.09 in 10.0 mi NNW 8.1 mph - 0.00 in   Overcast
10:57 PM 36.0 °F 29.6 °F 34.0 °F 93% 30.12 in 10.0 mi NNW 8.1 mph - N/A   Overcast
11:23 PM 35.6 °F 28.0 °F 33.8 °F 93% 30.12 in 9.0 mi NNW 10.4 mph - 0.00 in   Overcast
11:57 PM 36.0 °F 30.3 °F 34.0 °F 93% 30.13 in 10.0 mi NNW 6.9 mph - 0.00 in   Overcast